Time,TemperatureF,DewpointF,PressureIn,WindDirection,WindDirectionDegrees,WindSpeedMPH,WindSpeedGustMPH,Humidity,HourlyPrecipIn,Conditions,Clouds,dailyrainin,SoftwareType,DateUTC
2013-08-08 00:00:00,80.7,80.1,29.92,North,32767,0.0,0.0,98,0.00,,,0.00,Wunderground v.1.15,2013-08-08 05:00:00,
2013-08-08 00:05:00,80.8,80.2,29.92,North,32767,0.0,0.0,98,0.00,,,0.00,Wunderground v.1.15,2013-08-08 05:05:00,
2013-08-08 00:10:00,80.9,80.3,29.92,North,32767,0.0,0.0,98,0.00,,,0.00,Wunderground v.1.15,2013-08-08 05:10:00,
2013-08-08 00:15:00,81.1,80.5,29.92,North,32767,0.0,0.0,98,0.00,,,0.00,Wunderground v.1.15,2013-08-08 05:15:00,
2013-08-08 00:20:00,81.1,80.5,29.92,North,32767,0.0,0.0,98,0.00,,,0.00,Wunderground v.1.15,2013-08-08 05:20:00,
2013-08-08 00:25:00,81.2,80.3,29.92,North,32767,0.0,0.0,97,0.00,,,0.00,Wunderground v.1.15,2013-08-08 05:25:00,
2013-08-08 00:30:00,81.5,80.2,29.92,North,32767,0.0,0.0,96,0.00,,,0.00,Wunderground v.1.15,2013-08-08 05:30:00,
2013-08-08 00:35:00,81.8,80.5,29.92,North,32767,0.0,0.0,96,0.00,,,0.00,Wunderground v.1.15,2013-08-08 05:35:00,
2013-08-08 00:40:00,82.1,80.5,29.92,North,32767,0.0,0.0,95,0.00,,,0.00,Wunderground v.1.15,2013-08-08 05:40:00,
2013-08-08 00:45:00,82.4,80.5,29.92,North,32767,0.0,0.0,94,0.00,,,0.00,Wunderground v.1.15,2013-08-08 05:45:00,
2013-08-08 00:50:00,82.4,80.5,29.92,North,32767,0.0,0.0,94,0.00,,,0.00,Wunderground v.1.15,2013-08-08 05:50:00,
2013-08-08 00:55:00,82.6,80.7,29.92,North,32767,0.0,0.0,94,0.00,,,0.00,Wunderground v.1.15,2013-08-08 05:55:00,
2013-08-08 01:00:00,82.5,80.9,29.92,North,32767,0.0,0.0,95,0.00,,,0.00,Wunderground v.1.15,2013-08-08 06:00:00,
2013-08-08 01:05:00,82.4,80.8,29.92,North,32767,0.0,0.0,95,0.00,,,0.00,Wunderground v.1.15,2013-08-08 06:05:00,
2013-08-08 01:10:00,82.2,80.6,29.92,North,32767,0.0,0.0,95,0.00,,,0.00,Wunderground v.1.15,2013-08-08 06:10:00,
2013-08-08 01:15:00,81.9,80.3,29.92,North,32767,0.0,0.0,95,0.00,,,0.00,Wunderground v.1.15,2013-08-08 06:15:00,
2013-08-08 01:20:00,81.7,80.4,29.92,North,32767,0.0,0.0,96,0.00,,,0.00,Wunderground v.1.15,2013-08-08 06:20:00,
2013-08-08 01:25:00,81.5,80.2,29.92,North,32767,0.0,0.0,96,0.00,,,0.00,Wunderground v.1.15,2013-08-08 06:25:00,
2013-08-08 01:30:00,81.3,80.0,29.92,North,32767,0.0,0.0,96,0.00,,,0.00,Wunderground v.1.15,2013-08-08 06:30:00,
2013-08-08 01:35:00,81.1,79.9,29.92,North,32767,0.0,0.0,96,0.00,,,0.00,Wunderground v.1.15,2013-08-08 06:35:00,
2013-08-08 01:40:00,80.9,79.7,29.92,North,32767,0.0,0.0,96,0.00,,,0.00,Wunderground v.1.15,2013-08-08 06:40:00,
2013-08-08 01:45:00,80.8,79.6,29.92,North,32767,0.0,0.0,96,0.00,,,0.00,Wunderground v.1.15,2013-08-08 06:45:00,
2013-08-08 01:50:00,80.6,79.7,29.91,North,32767,0.0,0.0,97,0.00,,,0.00,Wunderground v.1.15,2013-08-08 06:50:00,
2013-08-08 01:55:00,80.5,79.6,29.91,North,32767,0.0,0.0,97,0.00,,,0.00,Wunderground v.1.15,2013-08-08 06:55:00,
2013-08-08 02:00:00,80.4,79.5,29.91,North,32767,0.0,0.0,97,0.00,,,0.00,Wunderground v.1.15,2013-08-08 07:00:00,
2013-08-08 02:05:00,80.2,79.3,29.91,North,32767,0.0,0.0,97,0.00,,,0.00,Wunderground v.1.15,2013-08-08 07:05:00,
2013-08-08 02:10:00,80.2,79.3,29.91,North,32767,0.0,0.0,97,0.00,,,0.00,Wunderground v.1.15,2013-08-08 07:10:00,
2013-08-08 02:20:00,79.9,79.0,29.91,North,32767,0.0,0.0,97,0.00,,,0.00,Wunderground v.1.15,2013-08-08 07:20:00,
2013-08-08 02:25:00,79.9,79.0,29.91,North,32767,0.0,0.0,97,0.00,,,0.00,Wunderground v.1.15,2013-08-08 07:25:00,
2013-08-08 02:30:00,79.8,78.9,29.90,North,32767,0.0,0.0,97,0.00,,,0.00,Wunderground v.1.15,2013-08-08 07:30:00,
2013-08-08 02:35:00,79.7,79.1,29.90,North,32767,0.0,0.0,98,0.00,,,0.00,Wunderground v.1.15,2013-08-08 07:35:00,
2013-08-08 02:40:00,79.6,79.0,29.90,North,32767,0.0,0.0,98,0.00,,,0.00,Wunderground v.1.15,2013-08-08 07:40:00,
2013-08-08 02:45:00,79.6,79.0,29.90,North,32767,0.0,0.0,98,0.00,,,0.00,Wunderground v.1.15,2013-08-08 07:45:00,
2013-08-08 02:50:00,79.5,78.9,29.90,North,32767,0.0,0.0,98,0.00,,,0.00,Wunderground v.1.15,2013-08-08 07:50:00,
2013-08-08 02:55:00,79.4,78.8,29.90,North,32767,0.0,0.0,98,0.00,,,0.00,Wunderground v.1.15,2013-08-08 07:55:00,
2013-08-08 03:00:00,79.4,78.8,29.90,North,32767,0.0,0.0,98,0.00,,,0.00,Wunderground v.1.15,2013-08-08 08:00:00,
2013-08-08 03:05:00,79.3,78.7,29.90,North,32767,0.0,0.0,98,0.00,,,0.00,Wunderground v.1.15,2013-08-08 08:05:00,
2013-08-08 03:10:00,79.3,78.7,29.90,North,32767,0.0,0.0,98,0.00,,,0.00,Wunderground v.1.15,2013-08-08 08:10:00,
2013-08-08 03:15:00,79.2,78.6,29.90,North,32767,0.0,0.0,98,0.00,,,0.00,Wunderground v.1.15,2013-08-08 08:15:00,
2013-08-08 03:20:00,79.2,78.6,29.90,North,32767,0.0,0.0,98,0.00,,,0.00,Wunderground v.1.15,2013-08-08 08:20:00,
2013-08-08 03:25:00,79.1,78.5,29.90,North,32767,0.0,0.0,98,0.00,,,0.00,Wunderground v.1.15,2013-08-08 08:25:00,
2013-08-08 03:35:00,79.1,78.5,29.90,North,32767,0.0,0.0,98,0.00,,,0.00,Wunderground v.1.15,2013-08-08 08:35:00,
2013-08-08 03:40:00,79.1,78.5,29.90,North,32767,0.0,0.0,98,0.00,,,0.00,Wunderground v.1.15,2013-08-08 08:40:00,
2013-08-08 03:45:00,79.1,78.5,29.90,North,32767,0.0,0.0,98,0.00,,,0.00,Wunderground v.1.15,2013-08-08 08:45:00,
2013-08-08 03:50:00,79.0,78.4,29.90,North,32767,0.0,0.0,98,0.00,,,0.00,Wunderground v.1.15,2013-08-08 08:50:00,
2013-08-08 03:55:00,79.0,78.4,29.90,North,32767,0.0,0.0,98,0.00,,,0.00,Wunderground v.1.15,2013-08-08 08:55:00,
2013-08-08 04:00:00,78.9,78.3,29.89,North,32767,0.0,0.0,98,0.00,,,0.00,Wunderground v.1.15,2013-08-08 09:00:00,
2013-08-08 04:05:00,78.9,78.3,29.89,North,32767,0.0,0.0,98,0.00,,,0.00,Wunderground v.1.15,2013-08-08 09:05:00,
2013-08-08 04:10:00,78.8,78.2,29.89,North,32767,0.0,0.0,98,0.00,,,0.00,Wunderground v.1.15,2013-08-08 09:10:00,
2013-08-08 04:15:00,78.9,78.3,29.89,North,32767,0.0,0.0,98,0.00,,,0.00,Wunderground v.1.15,2013-08-08 09:15:00,
2013-08-08 04:20:00,78.9,78.3,29.90,North,32767,0.0,0.0,98,0.00,,,0.00,Wunderground v.1.15,2013-08-08 09:20:00,
2013-08-08 04:25:00,78.9,78.3,29.90,North,32767,0.0,0.0,98,0.00,,,0.00,Wunderground v.1.15,2013-08-08 09:25:00,
2013-08-08 04:30:00,78.8,78.2,29.90,North,32767,0.0,0.0,98,0.00,,,0.00,Wunderground v.1.15,2013-08-08 09:30:00,
2013-08-08 04:35:00,78.8,78.2,29.90,North,32767,0.0,0.0,98,0.00,,,0.00,Wunderground v.1.15,2013-08-08 09:35:00,
2013-08-08 04:40:00,78.8,78.2,29.90,North,32767,0.0,0.0,98,0.00,,,0.00,Wunderground v.1.15,2013-08-08 09:40:00,
2013-08-08 04:45:00,78.8,78.2,29.89,North,32767,0.0,0.0,98,0.00,,,0.00,Wunderground v.1.15,2013-08-08 09:45:00,
2013-08-08 04:50:00,78.7,78.1,29.89,North,32767,0.0,0.0,98,0.00,,,0.00,Wunderground v.1.15,2013-08-08 09:50:00,
2013-08-08 04:55:00,78.7,78.1,29.89,North,32767,0.0,0.0,98,0.00,,,0.00,Wunderground v.1.15,2013-08-08 09:55:00,
2013-08-08 05:00:00,78.7,78.1,29.89,North,32767,0.0,0.0,98,0.00,,,0.00,Wunderground v.1.15,2013-08-08 10:00:00,
2013-08-08 05:05:00,78.7,78.1,29.90,North,32767,0.0,0.0,98,0.00,,,0.00,Wunderground v.1.15,2013-08-08 10:05:00,
2013-08-08 05:10:00,78.6,78.0,29.90,North,32767,0.0,0.0,98,0.00,,,0.00,Wunderground v.1.15,2013-08-08 10:10:00,
2013-08-08 05:15:00,78.6,78.0,29.90,North,32767,0.0,0.0,98,0.00,,,0.00,Wunderground v.1.15,2013-08-08 10:15:00,
2013-08-08 05:20:00,78.6,78.0,29.90,North,32767,0.0,0.0,98,0.00,,,0.00,Wunderground v.1.15,2013-08-08 10:20:00,
2013-08-08 05:25:00,78.6,78.0,29.90,North,32767,0.0,0.0,98,0.00,,,0.00,Wunderground v.1.15,2013-08-08 10:25:00,
2013-08-08 05:30:00,78.6,78.0,29.90,North,32767,0.0,0.0,98,0.00,,,0.00,Wunderground v.1.15,2013-08-08 10:30:00,
2013-08-08 05:35:00,78.5,77.9,29.90,North,32767,0.0,0.0,98,0.00,,,0.00,Wunderground v.1.15,2013-08-08 10:35:00,
2013-08-08 05:40:00,78.5,77.9,29.90,North,32767,0.0,0.0,98,0.00,,,0.00,Wunderground v.1.15,2013-08-08 10:40:00,
2013-08-08 05:45:00,78.5,77.9,29.90,North,32767,0.0,0.0,98,0.00,,,0.00,Wunderground v.1.15,2013-08-08 10:45:00,
2013-08-08 05:50:00,78.5,77.9,29.90,North,32767,0.0,0.0,98,0.00,,,0.00,Wunderground v.1.15,2013-08-08 10:50:00,
2013-08-08 05:55:00,78.5,77.9,29.91,North,32767,0.0,0.0,98,0.00,,,0.00,Wunderground v.1.15,2013-08-08 10:55:00,
2013-08-08 06:00:00,78.5,77.9,29.91,North,32767,0.0,0.0,98,0.00,,,0.00,Wunderground v.1.15,2013-08-08 11:00:00,
2013-08-08 06:05:00,78.4,77.8,29.91,North,32767,0.0,0.0,98,0.00,,,0.00,Wunderground v.1.15,2013-08-08 11:05:00,
2013-08-08 06:10:00,78.4,77.8,29.91,North,32767,0.0,0.0,98,0.00,,,0.00,Wunderground v.1.15,2013-08-08 11:10:00,
2013-08-08 06:15:00,78.3,77.7,29.90,North,32767,0.0,0.0,98,0.00,,,0.00,Wunderground v.1.15,2013-08-08 11:15:00,
2013-08-08 06:20:00,78.2,77.6,29.91,North,32767,0.0,0.0,98,0.00,,,0.00,Wunderground v.1.15,2013-08-08 11:20:00,
2013-08-08 06:25:00,78.3,77.7,29.91,North,32767,0.0,0.0,98,0.00,,,0.00,Wunderground v.1.15,2013-08-08 11:25:00,
2013-08-08 06:30:00,78.3,77.7,29.91,North,32767,0.0,0.0,98,0.00,,,0.00,Wunderground v.1.15,2013-08-08 11:30:00,
2013-08-08 06:35:00,78.3,77.7,29.92,North,32767,0.0,0.0,98,0.00,,,0.00,Wunderground v.1.15,2013-08-08 11:35:00,
2013-08-08 06:40:00,78.2,77.6,29.92,North,32767,0.0,0.0,98,0.00,,,0.00,Wunderground v.1.15,2013-08-08 11:40:00,
2013-08-08 06:45:00,78.3,77.7,29.92,North,32767,0.0,0.0,98,0.00,,,0.00,Wunderground v.1.15,2013-08-08 11:45:00,
2013-08-08 06:50:00,78.4,77.8,29.92,North,32767,0.0,0.0,98,0.00,,,0.00,Wunderground v.1.15,2013-08-08 11:50:00,
2013-08-08 06:55:00,78.5,77.9,29.92,North,32767,0.0,0.0,98,0.00,,,0.00,Wunderground v.1.15,2013-08-08 11:55:00,
2013-08-08 07:00:00,78.7,78.1,29.92,North,32767,0.0,0.0,98,0.00,,,0.00,Wunderground v.1.15,2013-08-08 12:00:00,
2013-08-08 07:05:00,78.8,78.2,29.92,North,32767,0.0,0.0,98,0.00,,,0.00,Wunderground v.1.15,2013-08-08 12:05:00,
2013-08-08 07:10:00,78.8,78.2,29.92,North,32767,0.0,0.0,98,0.00,,,0.00,Wunderground v.1.15,2013-08-08 12:10:00,
2013-08-08 07:15:00,78.9,78.3,29.92,North,32767,0.0,0.0,98,0.00,,,0.00,Wunderground v.1.15,2013-08-08 12:15:00,
2013-08-08 07:20:00,79.0,78.4,29.92,North,32767,0.0,0.0,98,0.00,,,0.00,Wunderground v.1.15,2013-08-08 12:20:00,
2013-08-08 07:25:00,79.2,78.6,29.92,North,32767,0.0,0.0,98,0.00,,,0.00,Wunderground v.1.15,2013-08-08 12:25:00,
2013-08-08 07:30:00,79.3,78.7,29.92,North,32767,0.0,0.0,98,0.00,,,0.00,Wunderground v.1.15,2013-08-08 12:30:00,
2013-08-08 07:35:00,79.5,78.9,29.92,North,32767,0.0,0.0,98,0.00,,,0.00,Wunderground v.1.15,2013-08-08 12:35:00,
2013-08-08 07:40:00,79.7,79.1,29.92,North,32767,0.0,0.0,98,0.00,,,0.00,Wunderground v.1.15,2013-08-08 12:40:00,
2013-08-08 07:45:00,79.8,79.2,29.92,North,32767,0.0,0.0,98,0.00,,,0.00,Wunderground v.1.15,2013-08-08 12:45:00,
2013-08-08 07:50:00,80.2,79.6,29.92,North,32767,0.0,0.0,98,0.00,,,0.00,Wunderground v.1.15,2013-08-08 12:50:00,
2013-08-08 07:55:00,80.7,80.1,29.93,North,32767,0.0,0.0,98,0.00,,,0.00,Wunderground v.1.15,2013-08-08 12:55:00,
2013-08-08 08:00:00,81.2,80.6,29.93,North,32767,0.0,0.0,98,0.00,,,0.00,Wunderground v.1.15,2013-08-08 13:00:00,
2013-08-08 08:05:00,81.8,81.2,29.93,North,32767,0.0,0.0,98,0.00,,,0.00,Wunderground v.1.15,2013-08-08 13:05:00,
2013-08-08 08:15:00,82.9,82.0,29.93,North,32767,0.0,0.0,97,0.00,,,0.00,Wunderground v.1.15,2013-08-08 13:15:00,
2013-08-08 08:20:00,83.3,82.4,29.93,North,32767,0.0,0.0,97,0.00,,,0.00,Wunderground v.1.15,2013-08-08 13:20:00,
2013-08-08 08:25:00,83.6,82.7,29.93,North,32767,0.0,0.0,97,0.00,,,0.00,Wunderground v.1.15,2013-08-08 13:25:00,
2013-08-08 08:30:00,83.8,82.5,29.92,North,32767,0.0,0.0,96,0.00,,,0.00,Wunderground v.1.15,2013-08-08 13:30:00,
2013-08-08 08:35:00,84.2,82.9,29.93,North,32767,0.0,0.0,96,0.00,,,0.00,Wunderground v.1.15,2013-08-08 13:35:00,
2013-08-08 08:45:00,84.9,83.3,29.93,North,32767,0.0,0.0,95,0.00,,,0.00,Wunderground v.1.15,2013-08-08 13:45:00,
2013-08-08 08:50:00,85.0,82.7,29.93,North,32767,0.0,0.0,93,0.00,,,0.00,Wunderground v.1.15,2013-08-08 13:50:00,
2013-08-08 08:55:00,85.2,82.9,29.93,North,32767,0.0,0.0,93,0.00,,,0.00,Wunderground v.1.15,2013-08-08 13:55:00,
2013-08-08 09:00:00,85.4,82.5,29.93,North,32767,0.0,0.0,91,0.00,,,0.00,Wunderground v.1.15,2013-08-08 14:00:00,
2013-08-08 09:05:00,85.5,82.2,29.94,North,32767,0.0,0.0,90,0.00,,,0.00,Wunderground v.1.15,2013-08-08 14:05:00,
2013-08-08 09:10:00,85.4,82.1,29.94,North,32767,0.0,0.0,90,0.00,,,0.00,Wunderground v.1.15,2013-08-08 14:10:00,
2013-08-08 09:15:00,85.4,82.5,29.94,North,32767,0.0,0.0,91,0.00,,,0.00,Wunderground v.1.15,2013-08-08 14:15:00,
2013-08-08 09:20:00,85.3,82.7,29.94,North,32767,0.0,0.0,92,0.00,,,0.00,Wunderground v.1.15,2013-08-08 14:20:00,
2013-08-08 09:25:00,85.2,82.6,29.94,North,32767,0.0,0.0,92,0.00,,,0.00,Wunderground v.1.15,2013-08-08 14:25:00,
2013-08-08 09:30:00,85.2,82.6,29.94,North,32767,0.0,0.0,92,0.00,,,0.00,Wunderground v.1.15,2013-08-08 14:30:00,
2013-08-08 09:35:00,85.1,82.2,29.94,North,32767,0.0,0.0,91,0.00,,,0.00,Wunderground v.1.15,2013-08-08 14:35:00,
2013-08-08 09:40:00,85.1,82.5,29.94,North,32767,0.0,0.0,92,0.00,,,0.00,Wunderground v.1.15,2013-08-08 14:40:00,
2013-08-08 09:45:00,85.1,81.5,29.94,North,32767,0.0,0.0,89,0.00,,,0.00,Wunderground v.1.15,2013-08-08 14:45:00,
2013-08-08 09:55:00,85.1,82.2,29.95,North,32767,0.0,0.0,91,0.00,,,0.00,Wunderground v.1.15,2013-08-08 14:55:00,
2013-08-08 10:00:00,85.1,82.2,29.95,North,32767,0.0,0.0,91,0.00,,,0.00,Wunderground v.1.15,2013-08-08 15:00:00,
2013-08-08 10:05:00,85.2,82.3,29.95,North,32767,0.0,0.0,91,0.00,,,0.00,Wunderground v.1.15,2013-08-08 15:05:00,
2013-08-08 10:10:00,85.3,82.0,29.95,North,32767,0.0,0.0,90,0.00,,,0.00,Wunderground v.1.15,2013-08-08 15:10:00,
2013-08-08 10:15:00,85.3,82.0,29.95,North,32767,0.0,0.0,90,0.00,,,0.00,Wunderground v.1.15,2013-08-08 15:15:00,
2013-08-08 10:20:00,85.4,82.1,29.95,North,32767,0.0,0.0,90,0.00,,,0.00,Wunderground v.1.15,2013-08-08 15:20:00,
2013-08-08 10:25:00,85.5,82.6,29.95,North,32767,0.0,0.0,91,0.00,,,0.00,Wunderground v.1.15,2013-08-08 15:25:00,
2013-08-08 10:30:00,85.5,81.9,29.96,North,32767,0.0,0.0,89,0.00,,,0.00,Wunderground v.1.15,2013-08-08 15:30:00,
2013-08-08 10:35:00,85.6,82.0,29.96,North,32767,0.0,0.0,89,0.00,,,0.00,Wunderground v.1.15,2013-08-08 15:35:00,
2013-08-08 10:40:00,85.7,82.1,29.96,North,32767,0.0,0.0,89,0.00,,,0.00,Wunderground v.1.15,2013-08-08 15:40:00,
2013-08-08 10:45:00,85.7,82.4,29.95,North,32767,0.0,0.0,90,0.00,,,0.00,Wunderground v.1.15,2013-08-08 15:45:00,
2013-08-08 10:50:00,85.5,81.5,29.96,North,32767,0.0,0.0,88,0.00,,,0.00,Wunderground v.1.15,2013-08-08 15:50:00,
2013-08-08 10:55:00,85.2,81.2,29.96,North,32767,0.0,0.0,88,0.00,,,0.00,Wunderground v.1.15,2013-08-08 15:55:00,
2013-08-08 11:00:00,85.1,81.5,29.96,North,32767,0.0,0.0,89,0.00,,,0.00,Wunderground v.1.15,2013-08-08 16:00:00,
2013-08-08 11:05:00,85.1,81.5,29.96,North,32767,0.0,0.0,89,0.00,,,0.00,Wunderground v.1.15,2013-08-08 16:05:00,
2013-08-08 11:10:00,85.2,81.9,29.96,North,32767,0.0,0.0,90,0.00,,,0.00,Wunderground v.1.15,2013-08-08 16:10:00,
2013-08-08 11:15:00,85.1,81.8,29.97,North,32767,0.0,0.0,90,0.00,,,0.00,Wunderground v.1.15,2013-08-08 16:15:00,
2013-08-08 11:25:00,85.0,82.4,29.97,North,32767,0.0,0.0,92,0.00,,,0.00,Wunderground v.1.15,2013-08-08 16:25:00,
2013-08-08 11:30:00,84.9,82.0,29.97,North,32767,0.0,0.0,91,0.00,,,0.00,Wunderground v.1.15,2013-08-08 16:30:00,
2013-08-08 11:35:00,84.9,82.3,29.97,North,32767,0.0,0.0,92,0.00,,,0.00,Wunderground v.1.15,2013-08-08 16:35:00,
2013-08-08 11:40:00,84.9,82.0,29.96,North,32767,0.0,0.0,91,0.00,,,0.00,Wunderground v.1.15,2013-08-08 16:40:00,
2013-08-08 11:45:00,85.0,82.4,29.96,North,32767,0.0,0.0,92,0.00,,,0.00,Wunderground v.1.15,2013-08-08 16:45:00,
2013-08-08 11:50:00,84.9,82.3,29.97,North,32767,0.0,0.0,92,0.00,,,0.00,Wunderground v.1.15,2013-08-08 16:50:00,
2013-08-08 11:55:00,84.9,82.6,29.97,North,32767,0.0,0.0,93,0.00,,,0.00,Wunderground v.1.15,2013-08-08 16:55:00,
2013-08-08 12:00:00,84.6,82.0,29.96,North,32767,0.0,0.0,92,0.00,,,0.00,Wunderground v.1.15,2013-08-08 17:00:00,
2013-08-08 12:05:00,84.1,81.2,29.97,North,32767,0.0,0.0,91,0.00,,,0.00,Wunderground v.1.15,2013-08-08 17:05:00,
2013-08-08 12:10:00,83.4,80.2,29.96,North,32767,0.0,0.0,90,0.00,,,0.00,Wunderground v.1.15,2013-08-08 17:10:00,
2013-08-08 12:15:00,82.6,79.4,29.96,North,32767,0.0,0.0,90,0.00,,,0.00,Wunderground v.1.15,2013-08-08 17:15:00,
2013-08-08 12:20:00,81.9,79.0,29.96,North,32767,0.0,0.0,91,0.00,,,0.00,Wunderground v.1.15,2013-08-08 17:20:00,
2013-08-08 12:25:00,81.3,78.4,29.97,North,32767,0.0,0.0,91,0.00,,,0.00,Wunderground v.1.15,2013-08-08 17:25:00,
2013-08-08 12:30:00,80.7,78.2,29.96,North,32767,0.0,0.0,92,0.00,,,0.00,Wunderground v.1.15,2013-08-08 17:30:00,
2013-08-08 12:35:00,80.4,78.2,29.96,North,32767,0.0,0.0,93,0.00,,,0.00,Wunderground v.1.15,2013-08-08 17:35:00,
2013-08-08 12:40:00,80.2,77.7,29.96,North,32767,0.0,0.0,92,0.00,,,0.00,Wunderground v.1.15,2013-08-08 17:40:00,
2013-08-08 12:45:00,80.2,78.0,29.96,North,32767,0.0,0.0,93,0.00,,,0.00,Wunderground v.1.15,2013-08-08 17:45:00,
2013-08-08 12:50:00,80.2,78.3,29.96,North,32767,0.0,0.0,94,0.00,,,0.00,Wunderground v.1.15,2013-08-08 17:50:00,
2013-08-08 12:55:00,80.2,78.0,29.96,North,32767,0.0,0.0,93,0.00,,,0.00,Wunderground v.1.15,2013-08-08 17:55:00,
2013-08-08 13:00:00,80.2,78.0,29.95,North,32767,0.0,0.0,93,0.00,,,0.00,Wunderground v.1.15,2013-08-08 18:00:00,
2013-08-08 13:05:00,80.0,77.5,29.95,North,32767,0.0,0.0,92,0.00,,,0.00,Wunderground v.1.15,2013-08-08 18:05:00,
2013-08-08 13:15:00,79.6,77.4,29.94,North,32767,0.0,0.0,93,0.00,,,0.00,Wunderground v.1.15,2013-08-08 18:15:00,
2013-08-08 13:20:00,79.7,77.8,29.94,North,32767,0.0,0.0,94,0.00,,,0.00,Wunderground v.1.15,2013-08-08 18:20:00,
2013-08-08 13:25:00,79.9,78.3,29.94,North,32767,0.0,0.0,95,0.00,,,0.00,Wunderground v.1.15,2013-08-08 18:25:00,
2013-08-08 13:30:00,80.2,78.6,29.94,North,32767,0.0,0.0,95,0.00,,,0.00,Wunderground v.1.15,2013-08-08 18:30:00,
2013-08-08 13:35:00,80.7,79.1,29.93,North,32767,0.0,0.0,95,0.00,,,0.00,Wunderground v.1.15,2013-08-08 18:35:00,
2013-08-08 13:40:00,81.2,79.6,29.92,North,32767,0.0,0.0,95,0.00,,,0.00,Wunderground v.1.15,2013-08-08 18:40:00,
2013-08-08 13:45:00,81.8,80.2,29.92,North,32767,0.0,0.0,95,0.00,,,0.00,Wunderground v.1.15,2013-08-08 18:45:00,
2013-08-08 13:50:00,82.5,80.9,29.92,North,32767,0.0,0.0,95,0.00,,,0.00,Wunderground v.1.15,2013-08-08 18:50:00,
2013-08-08 13:55:00,83.2,81.3,29.93,North,32767,0.0,0.0,94,0.00,,,0.00,Wunderground v.1.15,2013-08-08 18:55:00,
2013-08-08 14:00:00,83.7,81.8,29.93,North,32767,0.0,0.0,94,0.00,,,0.00,Wunderground v.1.15,2013-08-08 19:00:00,
2013-08-08 14:05:00,84.3,82.4,29.92,North,32767,0.0,0.0,94,0.00,,,0.00,Wunderground v.1.15,2013-08-08 19:05:00,
2013-08-08 14:10:00,84.8,82.5,29.92,North,32767,0.0,0.0,93,0.00,,,0.00,Wunderground v.1.15,2013-08-08 19:10:00,
2013-08-08 14:15:00,85.3,82.7,29.92,North,32767,0.0,0.0,92,0.00,,,0.00,Wunderground v.1.15,2013-08-08 19:15:00,
2013-08-08 14:20:00,86.2,82.6,29.92,North,32767,0.0,0.0,89,0.00,,,0.00,Wunderground v.1.15,2013-08-08 19:20:00,
2013-08-08 14:30:00,87.8,82.7,29.92,North,32767,0.0,0.0,85,0.00,,,0.00,Wunderground v.1.15,2013-08-08 19:30:00,
2013-08-08 14:35:00,88.3,83.6,29.92,North,32767,0.0,0.0,86,0.00,,,0.00,Wunderground v.1.15,2013-08-08 19:35:00,
2013-08-08 14:40:00,88.4,82.9,29.92,North,32767,0.0,0.0,84,0.00,,,0.00,Wunderground v.1.15,2013-08-08 19:40:00,
2013-08-08 14:45:00,88.5,83.0,29.92,North,32767,0.0,0.0,84,0.00,,,0.00,Wunderground v.1.15,2013-08-08 19:45:00,
2013-08-08 14:50:00,88.6,83.9,29.92,North,32767,0.0,0.0,86,0.00,,,0.00,Wunderground v.1.15,2013-08-08 19:50:00,
2013-08-08 14:55:00,88.7,83.2,29.91,North,32767,0.0,0.0,84,0.00,,,0.00,Wunderground v.1.15,2013-08-08 19:55:00,
2013-08-08 15:00:00,88.9,83.8,29.92,North,32767,0.0,0.0,85,0.00,,,0.00,Wunderground v.1.15,2013-08-08 20:00:00,
2013-08-08 15:05:00,89.2,83.0,29.92,North,32767,0.0,0.0,82,0.00,,,0.00,Wunderground v.1.15,2013-08-08 20:05:00,
2013-08-08 15:10:00,89.4,83.2,29.92,North,32767,0.0,0.0,82,0.00,,,0.00,Wunderground v.1.15,2013-08-08 20:10:00,
2013-08-08 15:15:00,89.5,83.3,29.91,North,32767,0.0,0.0,82,0.00,,,0.00,Wunderground v.1.15,2013-08-08 20:15:00,
2013-08-08 15:20:00,89.7,83.5,29.91,North,32767,0.0,0.0,82,0.00,,,0.00,Wunderground v.1.15,2013-08-08 20:20:00,
2013-08-08 15:25:00,89.7,83.8,29.91,North,32767,0.0,0.0,83,0.00,,,0.00,Wunderground v.1.15,2013-08-08 20:25:00,
2013-08-08 15:30:00,89.8,83.6,29.91,North,32767,0.0,0.0,82,0.00,,,0.00,Wunderground v.1.15,2013-08-08 20:30:00,
2013-08-08 15:35:00,89.8,83.6,29.91,North,32767,0.0,0.0,82,0.00,,,0.00,Wunderground v.1.15,2013-08-08 20:35:00,
2013-08-08 15:40:00,89.8,83.2,29.91,North,32767,0.0,0.0,81,0.00,,,0.00,Wunderground v.1.15,2013-08-08 20:40:00,
2013-08-08 15:45:00,89.7,83.5,29.91,North,32767,0.0,0.0,82,0.00,,,0.00,Wunderground v.1.15,2013-08-08 20:45:00,
2013-08-08 15:50:00,89.6,83.0,29.91,North,32767,0.0,0.0,81,0.00,,,0.00,Wunderground v.1.15,2013-08-08 20:50:00,
2013-08-08 15:55:00,89.5,83.3,29.90,North,32767,0.0,0.0,82,0.00,,,0.00,Wunderground v.1.15,2013-08-08 20:55:00,
2013-08-08 16:00:00,89.4,82.8,29.90,North,32767,0.0,0.0,81,0.00,,,0.00,Wunderground v.1.15,2013-08-08 21:00:00,
2013-08-08 16:05:00,89.1,82.9,29.90,North,32767,0.0,0.0,82,0.00,,,0.00,Wunderground v.1.15,2013-08-08 21:05:00,
2013-08-08 16:10:00,89.1,83.3,29.90,North,32767,0.0,0.0,83,0.00,,,0.00,Wunderground v.1.15,2013-08-08 21:10:00,
2013-08-08 16:15:00,89.0,82.8,29.90,North,32767,0.0,0.0,82,0.00,,,0.00,Wunderground v.1.15,2013-08-08 21:15:00,
2013-08-08 16:20:00,89.0,83.5,29.90,North,32767,0.0,0.0,84,0.00,,,0.00,Wunderground v.1.15,2013-08-08 21:20:00,
2013-08-08 16:25:00,89.0,82.8,29.90,North,32767,0.0,0.0,82,0.00,,,0.00,Wunderground v.1.15,2013-08-08 21:25:00,
2013-08-08 16:30:00,89.1,83.3,29.90,North,32767,0.0,0.0,83,0.00,,,0.00,Wunderground v.1.15,2013-08-08 21:30:00,
2013-08-08 16:35:00,89.0,83.5,29.90,North,32767,0.0,0.0,84,0.00,,,0.00,Wunderground v.1.15,2013-08-08 21:35:00,
2013-08-08 16:40:00,89.1,84.0,29.90,North,32767,0.0,0.0,85,0.00,,,0.00,Wunderground v.1.15,2013-08-08 21:40:00,
2013-08-08 16:45:00,89.2,83.7,29.90,North,32767,0.0,0.0,84,0.00,,,0.00,Wunderground v.1.15,2013-08-08 21:45:00,
2013-08-08 16:50:00,89.3,83.5,29.90,North,32767,0.0,0.0,83,0.00,,,0.00,Wunderground v.1.15,2013-08-08 21:50:00,
2013-08-08 16:55:00,89.1,82.9,29.90,North,32767,0.0,0.0,82,0.00,,,0.00,Wunderground v.1.15,2013-08-08 21:55:00,
2013-08-08 17:00:00,88.9,82.7,29.90,North,32767,0.0,0.0,82,0.00,,,0.00,Wunderground v.1.15,2013-08-08 22:00:00,
2013-08-08 17:05:00,89.0,83.5,29.90,North,32767,0.0,0.0,84,0.00,,,0.00,Wunderground v.1.15,2013-08-08 22:05:00,
2013-08-08 17:10:00,89.0,83.2,29.90,North,32767,0.0,0.0,83,0.00,,,0.00,Wunderground v.1.15,2013-08-08 22:10:00,
2013-08-08 17:15:00,89.1,82.9,29.90,North,32767,0.0,0.0,82,0.00,,,0.00,Wunderground v.1.15,2013-08-08 22:15:00,
2013-08-08 17:20:00,89.0,83.2,29.89,North,32767,0.0,0.0,83,0.00,,,0.00,Wunderground v.1.15,2013-08-08 22:20:00,
2013-08-08 17:25:00,88.6,83.1,29.89,North,32767,0.0,0.0,84,0.00,,,0.00,Wunderground v.1.15,2013-08-08 22:25:00,
2013-08-08 17:30:00,88.4,82.6,29.89,North,32767,0.0,0.0,83,0.00,,,0.00,Wunderground v.1.15,2013-08-08 22:30:00,
2013-08-08 17:35:00,88.3,82.5,29.90,North,32767,0.0,0.0,83,0.00,,,0.00,Wunderground v.1.15,2013-08-08 22:35:00,
2013-08-08 17:40:00,88.1,82.7,29.90,North,32767,0.0,0.0,84,0.00,,,0.00,Wunderground v.1.15,2013-08-08 22:40:00,
2013-08-08 17:45:00,87.9,82.5,29.90,North,32767,0.0,0.0,84,0.00,,,0.00,Wunderground v.1.15,2013-08-08 22:45:00,
2013-08-08 17:50:00,87.8,82.7,29.90,North,32767,0.0,0.0,85,0.00,,,0.00,Wunderground v.1.15,2013-08-08 22:50:00,
2013-08-08 17:55:00,87.8,82.7,29.90,North,32767,0.0,0.0,85,0.00,,,0.00,Wunderground v.1.15,2013-08-08 22:55:00,
2013-08-08 18:00:00,87.7,82.6,29.90,North,32767,0.0,0.0,85,0.00,,,0.00,Wunderground v.1.15,2013-08-08 23:00:00,
2013-08-08 18:05:00,87.6,82.5,29.90,North,32767,0.0,0.0,85,0.00,,,0.00,Wunderground v.1.15,2013-08-08 23:05:00,
2013-08-08 18:10:00,87.5,82.1,29.90,North,32767,0.0,0.0,84,0.00,,,0.00,Wunderground v.1.15,2013-08-08 23:10:00,
2013-08-08 18:15:00,87.3,81.9,29.90,North,32767,0.0,0.0,84,0.00,,,0.00,Wunderground v.1.15,2013-08-08 23:15:00,
2013-08-08 18:20:00,87.1,82.0,29.91,North,32767,0.0,0.0,85,0.00,,,0.00,Wunderground v.1.15,2013-08-08 23:20:00,
2013-08-08 18:25:00,87.0,81.6,29.90,North,32767,0.0,0.0,84,0.00,,,0.00,Wunderground v.1.15,2013-08-08 23:25:00,
2013-08-08 18:30:00,86.9,81.5,29.90,North,32767,0.0,0.0,84,0.00,,,0.00,Wunderground v.1.15,2013-08-08 23:30:00,
2013-08-08 18:35:00,86.9,81.8,29.90,North,32767,0.0,0.0,85,0.00,,,0.00,Wunderground v.1.15,2013-08-08 23:35:00,
2013-08-08 18:40:00,86.8,81.7,29.90,North,32767,0.0,0.0,85,0.00,,,0.00,Wunderground v.1.15,2013-08-08 23:40:00,
2013-08-08 18:50:00,86.6,81.9,29.90,North,32767,0.0,0.0,86,0.00,,,0.00,Wunderground v.1.15,2013-08-08 23:50:00,
2013-08-08 18:55:00,86.5,81.8,29.91,North,32767,0.0,0.0,86,0.00,,,0.00,Wunderground v.1.15,2013-08-08 23:55:00,
2013-08-08 19:00:00,86.4,81.7,29.91,North,32767,0.0,0.0,86,0.00,,,0.00,Wunderground v.1.15,2013-08-09 00:00:00,
2013-08-08 19:05:00,86.3,82.0,29.90,North,32767,0.0,0.0,87,0.00,,,0.00,Wunderground v.1.15,2013-08-09 00:05:00,
2013-08-08 19:10:00,86.2,81.9,29.90,North,32767,0.0,0.0,87,0.00,,,0.00,Wunderground v.1.15,2013-08-09 00:10:00,
2013-08-08 19:15:00,86.0,81.7,29.90,North,32767,0.0,0.0,87,0.00,,,0.00,Wunderground v.1.15,2013-08-09 00:15:00,
2013-08-08 19:20:00,85.8,81.5,29.90,North,32767,0.0,0.0,87,0.00,,,0.00,Wunderground v.1.15,2013-08-09 00:20:00,
2013-08-08 19:25:00,85.7,81.4,29.90,North,32767,0.0,0.0,87,0.00,,,0.00,Wunderground v.1.15,2013-08-09 00:25:00,
2013-08-08 19:30:00,85.6,81.3,29.90,North,32767,0.0,0.0,87,0.00,,,0.00,Wunderground v.1.15,2013-08-09 00:30:00,
2013-08-08 19:35:00,85.5,81.2,29.90,North,32767,0.0,0.0,87,0.00,,,0.00,Wunderground v.1.15,2013-08-09 00:35:00,
2013-08-08 19:40:00,85.4,80.7,29.90,North,32767,0.0,0.0,86,0.00,,,0.00,Wunderground v.1.15,2013-08-09 00:40:00,
2013-08-08 19:45:00,85.3,81.0,29.91,North,32767,0.0,0.0,87,0.00,,,0.00,Wunderground v.1.15,2013-08-09 00:45:00,
2013-08-08 19:50:00,85.1,80.8,29.91,North,32767,0.0,0.0,87,0.00,,,0.00,Wunderground v.1.15,2013-08-09 00:50:00,
2013-08-08 19:55:00,85.1,80.8,29.91,North,32767,0.0,0.0,87,0.00,,,0.00,Wunderground v.1.15,2013-08-09 00:55:00,
2013-08-08 20:00:00,85.0,81.0,29.91,North,32767,0.0,0.0,88,0.00,,,0.00,Wunderground v.1.15,2013-08-09 01:00:00,
2013-08-08 20:05:00,85.0,81.4,29.91,North,32767,0.0,0.0,89,0.00,,,0.00,Wunderground v.1.15,2013-08-09 01:05:00,
2013-08-08 20:20:00,85.1,81.1,29.92,North,32767,0.0,0.0,88,0.00,,,0.00,Wunderground v.1.15,2013-08-09 01:20:00,
2013-08-08 20:25:00,85.1,81.1,29.92,North,32767,0.0,0.0,88,0.00,,,0.00,Wunderground v.1.15,2013-08-09 01:25:00,
2013-08-08 20:30:00,85.1,81.5,29.92,North,32767,0.0,0.0,89,0.00,,,0.00,Wunderground v.1.15,2013-08-09 01:30:00,
2013-08-08 20:35:00,85.1,81.1,29.92,North,32767,0.0,0.0,88,0.00,,,0.00,Wunderground v.1.15,2013-08-09 01:35:00,
2013-08-08 20:40:00,85.0,81.0,29.92,North,32767,0.0,0.0,88,0.00,,,0.00,Wunderground v.1.15,2013-08-09 01:40:00,
2013-08-08 20:45:00,85.0,81.0,29.91,North,32767,0.0,0.0,88,0.00,,,0.00,Wunderground v.1.15,2013-08-09 01:45:00,
2013-08-08 20:50:00,84.9,80.6,29.92,North,32767,0.0,0.0,87,0.00,,,0.00,Wunderground v.1.15,2013-08-09 01:50:00,
2013-08-08 20:55:00,84.9,80.6,29.92,North,32767,0.0,0.0,87,0.00,,,0.00,Wunderground v.1.15,2013-08-09 01:55:00,
2013-08-08 21:00:00,84.9,80.9,29.92,North,32767,0.0,0.0,88,0.00,,,0.00,Wunderground v.1.15,2013-08-09 02:00:00,
2013-08-08 21:05:00,84.8,80.8,29.92,North,32767,0.0,0.0,88,0.00,,,0.00,Wunderground v.1.15,2013-08-09 02:05:00,
2013-08-08 21:10:00,84.8,80.8,29.92,North,32767,0.0,0.0,88,0.00,,,0.00,Wunderground v.1.15,2013-08-09 02:10:00,
2013-08-08 21:15:00,84.8,81.2,29.93,North,32767,0.0,0.0,89,0.00,,,0.00,Wunderground v.1.15,2013-08-09 02:15:00,
2013-08-08 21:20:00,84.7,81.1,29.93,North,32767,0.0,0.0,89,0.00,,,0.00,Wunderground v.1.15,2013-08-09 02:20:00,
2013-08-08 21:25:00,84.7,81.1,29.93,North,32767,0.0,0.0,89,0.00,,,0.00,Wunderground v.1.15,2013-08-09 02:25:00,
2013-08-08 21:30:00,84.7,80.7,29.93,North,32767,0.0,0.0,88,0.00,,,0.00,Wunderground v.1.15,2013-08-09 02:30:00,
2013-08-08 21:35:00,84.7,80.7,29.93,North,32767,0.0,0.0,88,0.00,,,0.00,Wunderground v.1.15,2013-08-09 02:35:00,
2013-08-08 21:45:00,84.7,80.7,29.94,North,32767,0.0,0.0,88,0.00,,,0.00,Wunderground v.1.15,2013-08-09 02:45:00,
2013-08-08 21:50:00,84.7,80.7,29.94,North,32767,0.0,0.0,88,0.00,,,0.00,Wunderground v.1.15,2013-08-09 02:50:00,
2013-08-08 21:55:00,84.7,80.7,29.93,North,32767,0.0,0.0,88,0.00,,,0.00,Wunderground v.1.15,2013-08-09 02:55:00,
2013-08-08 22:00:00,84.7,81.1,29.93,North,32767,0.0,0.0,89,0.00,,,0.00,Wunderground v.1.15,2013-08-09 03:00:00,
2013-08-08 22:05:00,84.7,81.1,29.93,North,32767,0.0,0.0,89,0.00,,,0.00,Wunderground v.1.15,2013-08-09 03:05:00,
2013-08-08 22:10:00,84.7,81.1,29.93,North,32767,0.0,0.0,89,0.00,,,0.00,Wunderground v.1.15,2013-08-09 03:10:00,
2013-08-08 22:15:00,84.7,81.1,29.93,North,32767,0.0,0.0,89,0.00,,,0.00,Wunderground v.1.15,2013-08-09 03:15:00,
2013-08-08 22:20:00,84.6,81.0,29.93,North,32767,0.0,0.0,89,0.00,,,0.00,Wunderground v.1.15,2013-08-09 03:20:00,
2013-08-08 22:25:00,84.5,80.9,29.93,North,32767,0.0,0.0,89,0.00,,,0.00,Wunderground v.1.15,2013-08-09 03:25:00,
2013-08-08 22:30:00,84.5,80.9,29.93,North,32767,0.0,0.0,89,0.00,,,0.00,Wunderground v.1.15,2013-08-09 03:30:00,
2013-08-08 22:35:00,84.5,80.9,29.93,North,32767,0.0,0.0,89,0.00,,,0.00,Wunderground v.1.15,2013-08-09 03:35:00,
2013-08-08 22:40:00,84.5,80.9,29.92,North,32767,0.0,0.0,89,0.00,,,0.00,Wunderground v.1.15,2013-08-09 03:40:00,
2013-08-08 22:45:00,84.5,80.9,29.92,North,32767,0.0,0.0,89,0.00,,,0.00,Wunderground v.1.15,2013-08-09 03:45:00,
2013-08-08 22:50:00,84.4,81.1,29.92,North,32767,0.0,0.0,90,0.00,,,0.00,Wunderground v.1.15,2013-08-09 03:50:00,
2013-08-08 22:55:00,84.3,80.7,29.92,North,32767,0.0,0.0,89,0.00,,,0.00,Wunderground v.1.15,2013-08-09 03:55:00,
2013-08-08 23:00:00,84.2,80.6,29.92,North,32767,0.0,0.0,89,0.00,,,0.00,Wunderground v.1.15,2013-08-09 04:00:00,
2013-08-08 23:05:00,84.2,80.6,29.92,North,32767,0.0,0.0,89,0.00,,,0.00,Wunderground v.1.15,2013-08-09 04:05:00,
2013-08-08 23:10:00,84.1,80.2,29.92,North,32767,0.0,0.0,88,0.00,,,0.00,Wunderground v.1.15,2013-08-09 04:10:00,
2013-08-08 23:15:00,84.0,80.4,29.92,North,32767,0.0,0.0,89,0.00,,,0.00,Wunderground v.1.15,2013-08-09 04:15:00,
2013-08-08 23:20:00,83.9,80.3,29.92,North,32767,0.0,0.0,89,0.00,,,0.00,Wunderground v.1.15,2013-08-09 04:20:00,
2013-08-08 23:25:00,83.9,80.3,29.92,North,32767,0.0,0.0,89,0.00,,,0.00,Wunderground v.1.15,2013-08-09 04:25:00,
2013-08-08 23:30:00,83.9,80.3,29.92,North,32767,0.0,0.0,89,0.00,,,0.00,Wunderground v.1.15,2013-08-09 04:30:00,
2013-08-08 23:35:00,83.9,80.3,29.92,North,32767,0.0,0.0,89,0.00,,,0.00,Wunderground v.1.15,2013-08-09 04:35:00,
2013-08-08 23:45:00,83.9,80.3,29.92,North,32767,0.0,0.0,89,0.00,,,0.00,Wunderground v.1.15,2013-08-09 04:45:00,
2013-08-08 23:50:00,83.9,80.0,29.92,North,32767,0.0,0.0,88,0.00,,,0.00,Wunderground v.1.15,2013-08-09 04:50:00,
2013-08-08 23:55:00,83.8,79.9,29.92,North,32767,0.0,0.0,88,0.00,,,0.00,Wunderground v.1.15,2013-08-09 04:55:00,